Weather in Borovoye

Russia / Chelyabinsk Oblast     54°39′24″N   62°18′10″E
temp.,
°C
wind,
m/s
gust,
m/s
humid.,
%
clouds,
%
prec.,
mm/h
press.,
hPa
HPBL,
m
27 february, sat
sat2723:00−29s45941 0.0 102872
02:00−29s47940 0.0 102794
05:00−28s489619 0.0 1026131
08:00−28sse599862 0.0 1024172
11:00−23sse599781 0.0 1022279
14:00−18sse71295100 0.2 1019525
17:00−13sse81394100 1.0 1016884
20:00−12sse71393100 0.6 1013746
28 february, sun
sun2823:00−12sse71294100 1.3 1011633
02:00−11se61194100 0.6 1009491
05:00−12ese51095100 0.8 1008284
08:00−12ese489595 0.1 1006248
11:00−10e579497 0.3 1005341
14:00−9ene5793100 0.1 1004389
17:00−9ne5894100 0.4 1005471
20:00−11ne599595 0.2 1006336
1 march, mon
mon123:00−13nne589598 0.3 1008260
02:00−16n4797100 0.1 1010189
05:00−19n369898 0.1 1012136
08:00−18n369697 0.1 1014244
11:00−17n349496 0.1 1016267
14:00−15n2389100 0.0 1017379
17:00−15n1293100 0.1 1018208
20:00−17ne1297100 0.1 101920
2 march, tue
tue223:00−18nne1197100 0.2 101920
02:00−18nnw119795 0.1 101820
05:00−18nw129797 0.2 101822
08:00−20nw129997 0.1 101720
11:00−17w129291 0.1 1017168
14:00−14sw238889 0.0 1016312
17:00−15s239593 0.0 101560
20:00−18ssw349852 0.0 101542
3 march, wed
wed323:00−19ssw449826 0.0 101552
02:00−20s449958 0.0 101469
05:00−20s469862 0.0 101387
08:00−18s4892100 0.0 1012172
11:00−14s599395 0.0 1011277
14:00−10s6993100 0.0 1010412
17:00−8s61191100 0.1 1009538
20:00−7s71294100 0.2 1008529